Victoria, TX

12:35 PM CST on December 08, 2019 (GMT -0600)
Victoria Regional

Weather History for KVCT - October, 2019

Change the Weather History Date:

Thursday, October 17, 2019

  Actual Average Record
Temperature  
Mean Temperature 66 °F 72 °F  
Max Temperature 73 °F 83 °F 100 °F (1926)
Min Temperature 57 °F 61 °F 45 °F (2001)
Degree Days  
Heating Degree Days 0 1  
Month to date heating degree days 0 2  
Since 1 July heating degree days 0 3  
Cooling Degree Days 0 8  
Month to date cooling degree days 226 158  
Year to date cooling degree days 3491 2956  
Growing Degree Days 16 (Base 50)    
Moisture  
Dew Point 53 °F    
Average Humidity 67    
Maximum Humidity 87    
Minimum Humidity 46    
Precipitation  
Precipitation 0.00 in 0.17 in 4.18 in (1971)
Month to date precipitation 1.68 2.55  
Year to date precipitation 21.04 33.58  
Snow  
Snow 0.00 in 0.00 in 0.00 in (2002)
Month to date snowfall 0.0 0.0  
Since 1 July snowfall 0.0 0.0  
Since 1 September snowfall 0.0 0.0  
Snow Depth 0.00 in    
Sea Level Pressure  
Sea Level Pressure 29.98 in    
Wind  
Wind Speed 6 mph ()    
Max Wind Speed 14 mph    
Max Gust Speed 18 mph    
Visibility 10.0 miles    
Events      
T = Trace of Precipitation, MM = Missing Value Source: Averaged Metar Reports

Daily Weather History Graph

Daily Weather History Graph

Search for Another Location

Airport or City:

Astronomy

Oct. 17, 2019 Rise Set
Actual Time 7:29 AM CDT 6:55 PM CDT
Civil Twilight 7:05 AM CDT 7:19 PM CDT
Nautical Twilight 6:38 AM CDT 7:47 PM CDT
Astronomical Twilight 6:10 AM CDT 8:14 PM CDT
Moon 9:43 PM CDT (10/17) 10:49 AM CDT (10/17)
Length of Visible Light 12h 13m
Length of Day
11h 26m
Waning Gibbous, 86% of the Moon is Illuminated
Oct 17
Waning Gibbous
Oct 21
Last Quarter
Oct 27
New
Nov 4
First Quarter
Nov 12
Full

Hourly Weather History & Observations

Time (CDT) Temp. Dew Point Humidity Pressure Visibility Wind Dir Wind Speed Gust Speed Precip Events Conditions
12:51 AM 64.9 °F 52.0 °F 63% 30.07 in 10.0 mi North 4.6 mph - N/A   Overcast
1:26 AM 64.0 °F 54.0 °F 70% 30.07 in 10.0 mi NNE 3.5 mph - N/A   Overcast
1:51 AM 64.0 °F 53.1 °F 67% 30.05 in 10.0 mi North 6.9 mph - N/A   Overcast
2:16 AM 64.0 °F 53.1 °F 67% 30.05 in 10.0 mi North 6.9 mph - N/A   Overcast
2:51 AM 64.0 °F 52.0 °F 65% 30.04 in 10.0 mi North 8.1 mph - N/A   Overcast
3:51 AM 63.0 °F 51.1 °F 65% 30.01 in 10.0 mi North 9.2 mph - N/A   Overcast
4:51 AM 62.1 °F 52.0 °F 70% 30.00 in 10.0 mi North 6.9 mph - N/A   Mostly Cloudy
5:51 AM 60.1 °F 53.1 °F 78% 30.00 in 10.0 mi NNE 5.8 mph - N/A   Clear
6:51 AM 57.9 °F 53.1 °F 84% 30.01 in 10.0 mi North 5.8 mph - N/A   Partly Cloudy
7:51 AM 57.9 °F 53.1 °F 84% 30.03 in 10.0 mi North 6.9 mph - N/A   Overcast
8:51 AM 60.1 °F 53.1 °F 78% 30.03 in 10.0 mi NE 11.5 mph - N/A   Overcast
10:51 AM 66.9 °F 54.0 °F 63% 30.03 in 10.0 mi NE 9.2 mph - N/A   Overcast
11:51 AM 69.1 °F 53.1 °F 57% 30.01 in 10.0 mi ENE 11.5 mph - N/A   Scattered Clouds
12:51 PM 73.0 °F 53.1 °F 49% 29.99 in 10.0 mi NNE 4.6 mph - N/A   Scattered Clouds
1:51 PM 73.0 °F 51.1 °F 46% 29.96 in 10.0 mi North 10.4 mph - N/A   Scattered Clouds
2:51 PM 72.0 °F 50.0 °F 46% 29.94 in 10.0 mi NNE 9.2 mph - N/A   Overcast
3:51 PM 70.0 °F 48.9 °F 47% 29.93 in 10.0 mi North 10.4 mph - N/A   Overcast
4:51 PM 72.0 °F 51.1 °F 48% 29.92 in 10.0 mi NE 6.9 mph - N/A   Mostly Cloudy
5:51 PM 71.1 °F 50.0 °F 47% 29.91 in 10.0 mi ENE 9.2 mph - N/A   Partly Cloudy
6:51 PM 66.0 °F 54.0 °F 65% 29.91 in 10.0 mi NE 5.8 mph - N/A   Partly Cloudy
7:51 PM 63.0 °F 55.9 °F 78% 29.91 in 10.0 mi NE 3.5 mph - N/A   Clear
8:51 PM 61.0 °F 55.0 °F 81% 29.93 in 10.0 mi North 5.8 mph - N/A   Clear
9:51 PM 59.0 °F 55.0 °F 87% 29.93 in 10.0 mi North 5.8 mph - N/A   Clear
10:51 PM 57.9 °F 54.0 °F 87% 29.93 in 10.0 mi NNE 4.6 mph - N/A   Clear
11:51 PM 57.9 °F 54.0 °F 87% 29.91 in 10.0 mi ENE 4.6 mph - N/A   Clear